Date,TemperatureHighF,TemperatureAvgF,TemperatureLowF,DewpointHighF,DewpointAvgF,DewpointLowF,HumidityHigh,HumidityAvg,HumidityLow,PressureMaxIn,PressureMinIn,WindSpeedMaxMPH,WindSpeedAvgMPH,GustSpeedMaxMPH,PrecipitationSumIn
2013-1-1,21.5,15.4,8.2,19.0,12.3,3.0,93,87,78,30.33,30.07,11,1,11,0.00
2013-1-2,32.3,24.3,10.0,28.3,21.6,7.4,94,89,84,30.24,30.02,12,2,13,0.00
2013-1-3,27.0,16.6,8.5,23.3,12.8,4.7,90,85,78,30.41,30.24,15,2,15,0.00
2013-1-4,29.7,18.1,8.2,17.8,12.5,5.0,89,79,59,30.24,30.12,8,0,8,0.00
2013-1-5,28.0,14.8,3.3,20.5,10.9,0.2,93,84,70,30.25,30.01,18,3,18,0.00
2013-1-6,28.2,17.8,6.8,21.8,13.5,3.8,92,83,68,30.32,29.97,15,2,15,0.00
2013-1-7,39.4,27.5,15.0,27.0,22.1,12.7,94,81,60,30.03,29.94,10,1,10,0.00
2013-1-8,34.0,23.6,11.0,30.5,20.5,8.4,96,88,81,30.10,29.78,8,1,8,0.00
2013-1-9,40.7,33.0,24.3,30.0,27.5,20.9,93,81,63,30.38,30.10,12,2,12,0.00
2013-1-10,39.7,33.8,29.6,33.9,29.9,25.5,97,86,58,30.24,29.60,16,3,16,0.00
2013-1-11,36.9,32.5,17.8,36.6,31.7,14.2,99,97,87,29.63,29.34,18,3,18,0.00
2013-1-12,17.6,10.1,5.6,14.0,4.9,0.6,87,79,70,30.22,29.63,18,5,18,0.00
2013-1-13,14.1,7.8,3.7,6.9,2.3,-1.4,89,78,67,30.36,30.18,11,2,11,0.00
2013-1-14,24.6,14.3,5.1,15.0,9.1,2.2,91,80,64,30.49,30.33,6,0,9,0.00
2013-1-15,30.0,20.0,10.0,15.9,11.2,6.2,88,70,46,30.33,29.90,13,1,13,0.00
2013-1-16,43.2,30.4,14.9,34.2,25.3,9.7,92,81,68,30.30,29.81,15,2,15,0.00
2013-1-17,33.1,24.8,14.0,28.5,19.3,6.3,94,80,59,30.44,30.17,12,1,12,0.00
2013-1-18,47.2,36.2,29.3,33.1,29.4,25.1,91,77,57,30.17,29.81,14,2,14,0.00
2013-1-19,42.4,30.3,7.5,34.0,22.5,-0.2,86,73,60,30.38,29.78,25,4,25,0.00
2013-1-20,29.1,14.1,0.0,17.0,7.5,-7.0,83,74,60,30.50,30.13,12,2,18,0.00
2013-1-21,22.4,13.3,-0.6,14.8,6.2,-6.3,78,73,67,30.48,30.36,11,2,11,0.00
2013-1-22,14.2,9.6,2.7,9.7,3.1,-3.4,83,74,62,30.46,30.25,9,1,9,0.00
2013-1-23,17.4,9.2,-2.4,10.8,3.4,-10.0,89,77,62,30.64,30.22,13,2,13,0.00
2013-1-24,14.9,4.9,-4.4,6.9,-2.7,-12.5,74,70,65,30.69,30.17,17,3,17,0.00
2013-1-25,27.0,16.2,7.2,21.6,10.1,0.5,87,76,63,30.34,30.13,15,2,15,0.00
2013-1-26,32.9,19.4,4.8,25.5,12.5,-1.0,78,74,66,30.34,30.01,14,2,14,0.00
2013-1-27,34.8,33.5,31.5,34.3,30.8,25.1,99,90,76,30.01,29.73,13,1,13,0.00
2013-1-28,35.4,34.2,32.6,35.1,33.9,32.3,99,99,98,29.85,29.60,7,0,7,0.00
2013-1-29,36.1,30.5,22.9,32.8,27.4,19.1,99,88,72,29.85,29.60,14,3,14,0.00
2013-1-30,23.0,13.9,0.2,19.5,9.1,-6.4,86,80,73,29.98,29.80,18,5,18,0.00
2013-1-31,0.2,-4.3,-6.7,-6.1,-10.6,-13.3,78,74,68,30.50,29.98,19,5,19,0.00
2013-2-1,22.9,8.0,-7.1,17.7,2.5,-11.6,84,78,71,30.48,30.07,12,1,12,0.00
2013-2-2,36.4,21.5,15.0,32.6,17.0,9.4,96,83,76,30.23,30.02,21,3,21,0.00
2013-2-3,38.4,23.8,12.6,30.8,18.3,7.9,88,79,68,30.21,29.83,14,2,14,0.00
2013-2-4,23.2,18.1,12.5,20.4,14.1,8.1,90,84,75,30.10,29.81,9,1,9,0.00
2013-2-5,38.4,30.3,23.0,31.1,26.2,20.3,94,85,74,30.07,29.77,16,2,16,0.00
2013-2-6,43.9,34.2,23.5,36.5,30.1,22.0,94,85,74,30.05,29.82,18,1,18,0.00
2013-2-7,33.3,27.3,22.8,30.4,24.7,20.2,95,90,85,30.31,29.96,11,2,11,0.00
2013-2-8,31.1,25.3,21.4,26.5,22.7,19.8,95,90,81,30.33,30.09,17,3,17,0.00
2013-2-9,44.3,34.4,26.3,35.6,30.7,24.3,93,87,70,30.10,29.69,24,3,24,0.00
2013-2-10,34.4,31.3,25.7,33.9,30.0,23.4,98,95,89,29.70,29.24,20,4,20,0.00
2013-2-11,25.7,23.3,22.1,23.3,20.0,18.6,91,87,82,30.13,29.68,22,4,22,0.00
2013-2-12,32.2,25.0,18.2,24.3,20.0,15.6,93,82,65,30.12,29.91,11,1,11,0.00
2013-2-13,41.0,32.3,21.2,33.2,27.5,19.2,95,83,67,29.91,29.66,11,1,11,0.00
2013-2-14,35.4,27.0,13.1,31.5,21.6,7.4,94,80,59,30.32,29.76,16,3,16,0.00
2013-2-15,23.9,15.7,8.2,19.2,11.4,5.7,90,83,70,30.43,30.32,9,1,9,0.00
2013-2-16,35.4,23.4,7.6,28.2,19.2,5.1,93,84,69,30.36,30.03,11,1,12,0.00
2013-2-17,46.2,34.1,22.4,35.0,28.5,19.9,91,81,63,30.03,29.52,17,3,17,0.00
2013-2-18,37.2,23.3,8.7,33.1,18.0,3.4,89,80,70,30.11,29.58,25,7,25,0.00
2013-2-19,8.9,3.6,-2.3,3.7,-2.5,-7.8,83,75,68,30.51,30.12,17,4,17,0.00
2013-2-20,24.1,10.3,-3.5,10.1,1.5,-8.6,80,68,50,30.52,30.33,12,2,12,0.00
2013-2-21,24.9,17.7,13.2,16.2,12.2,9.3,90,79,59,30.38,30.05,13,2,13,0.00
2013-2-22,24.9,18.6,11.2,20.1,15.4,8.1,91,87,79,30.05,29.98,11,2,12,0.00
2013-2-23,29.2,14.2,-0.2,21.2,10.0,-3.1,93,83,70,30.00,29.87,7,0,7,0.00
2013-2-24,32.0,21.9,12.0,24.8,18.8,9.8,95,88,71,30.14,29.95,6,0,6,0.00
2013-2-25,31.1,23.7,17.0,25.3,21.2,15.1,95,90,78,30.15,30.02,8,0,8,0.00
2013-2-26,32.2,24.0,16.3,27.7,21.6,14.5,95,90,79,30.05,29.93,11,1,11,0.00
2013-2-27,35.9,27.2,21.3,26.0,21.5,17.4,92,80,60,30.15,30.00,19,4,19,0.00
2013-2-28,26.9,23.6,19.7,23.8,20.0,17.2,91,86,82,30.29,30.15,12,3,12,0.00
2013-3-1,28.6,21.8,10.4,19.5,16.8,7.7,90,81,67,30.43,30.28,10,1,10,0.00
2013-3-2,29.9,19.4,6.3,22.7,14.9,3.5,93,83,70,30.41,30.09,11,1,11,0.00
2013-3-3,35.3,28.9,21.6,29.6,24.5,18.3,90,84,76,30.09,29.75,18,3,18,0.00
2013-3-4,35.5,30.1,26.6,30.6,26.3,20.9,91,86,68,30.00,29.72,14,2,14,0.00
2013-3-5,26.7,24.3,20.0,23.7,20.0,15.7,92,84,77,30.43,29.96,21,5,21,0.00
2013-3-6,29.7,21.7,16.0,22.3,17.6,13.3,90,84,73,30.48,30.29,11,1,11,0.00
2013-3-7,40.6,28.8,19.0,32.2,24.4,16.8,93,84,68,30.31,30.12,16,3,16,0.00
2013-3-8,47.3,35.5,24.5,37.8,31.1,22.8,96,84,67,30.23,29.92,11,1,11,0.00
2013-3-9,38.6,35.2,30.9,38.3,34.4,28.1,99,97,90,29.95,29.63,18,2,18,0.00
2013-3-10,31.0,24.9,20.0,28.3,21.5,16.0,92,87,82,30.07,29.85,20,6,20,0.00
2013-3-11,31.2,23.1,14.0,24.0,17.5,10.4,87,79,62,30.03,29.89,16,2,16,0.00
2013-3-12,29.8,26.1,20.1,26.6,21.2,15.8,91,81,70,30.35,30.00,22,5,22,0.00
2013-3-13,38.3,25.8,13.3,26.0,18.9,11.1,92,76,49,30.44,30.18,14,2,14,0.00
2013-3-14,54.1,40.1,29.9,43.3,33.5,24.2,95,78,64,30.18,29.99,11,1,11,0.00
2013-3-15,42.5,37.2,32.1,36.7,34.2,30.8,97,89,79,29.98,29.78,11,1,11,0.00
2013-3-16,32.1,24.8,18.7,30.8,19.4,12.9,95,80,67,30.26,29.92,13,3,13,0.00
2013-3-17,34.4,24.8,15.2,31.4,19.2,10.4,94,79,65,30.26,29.68,18,4,18,0.00
2013-3-18,33.8,21.4,13.8,33.0,15.8,7.3,97,79,65,30.07,29.67,23,6,23,0.00
2013-3-19,30.4,17.9,8.1,18.8,9.9,2.7,81,71,56,30.42,30.05,15,3,16,0.00
2013-3-20,26.5,16.5,8.0,11.3,7.2,3.6,82,67,46,30.45,30.19,15,3,15,0.00
2013-3-21,38.3,22.6,9.7,19.3,11.5,3.7,81,64,39,30.20,30.00,11,1,11,0.00
2013-3-22,34.6,26.3,18.6,22.7,19.2,15.0,86,75,60,30.10,30.02,9,1,9,0.00
2013-3-23,32.9,28.7,25.9,26.5,23.8,21.0,88,82,75,30.19,30.10,13,1,13,0.00
2013-3-24,27.9,24.9,20.0,24.8,20.4,16.3,93,83,73,30.18,30.07,15,3,15,0.00
2013-3-25,28.7,24.6,18.5,21.3,19.2,12.8,91,80,65,30.38,30.18,15,4,15,0.00
2013-3-26,38.6,25.4,9.4,24.3,17.5,6.8,93,73,52,30.40,30.26,9,1,9,0.00
2013-3-27,50.2,36.4,24.6,32.2,26.7,21.0,87,70,47,30.30,30.20,14,2,14,0.00
2013-3-28,58.7,42.0,26.2,38.7,31.9,24.5,94,71,42,30.25,30.15,16,1,16,0.00
2013-3-29,65.6,48.8,29.7,43.5,36.8,27.9,97,67,39,30.20,29.93,17,2,17,0.00
2013-3-30,59.7,49.9,36.4,47.3,42.5,35.3,97,77,51,29.96,29.87,19,3,19,0.00
2013-3-31,42.2,33.9,24.1,35.3,27.4,16.7,98,78,52,30.22,29.91,17,3,17,0.00
2013-4-1,39.0,27.6,17.4,17.3,15.3,12.6,83,62,36,30.37,30.22,8,2,10,0.00
2013-4-2,51.4,34.2,17.1,26.1,20.9,14.5,94,62,35,30.34,30.27,9,1,10,0.00
2013-4-3,63.8,44.5,27.6,33.5,28.1,22.8,85,57,30,30.33,30.05,21,4,21,0.00
2013-4-4,56.5,44.7,32.9,33.9,28.9,24.4,85,55,33,30.18,30.01,15,2,15,0.00
2013-4-5,60.5,42.6,29.6,41.0,29.4,20.6,77,61,42,30.18,29.61,20,4,20,0.00
2013-4-6,62.9,50.9,38.6,42.4,38.9,33.9,90,65,44,29.78,29.47,17,4,17,0.00
2013-4-7,54.9,42.4,32.5,45.8,37.6,30.6,96,85,56,29.88,29.64,16,1,17,0.10
2013-4-8,54.2,43.7,36.6,49.1,41.9,35.0,99,94,82,29.92,29.62,15,2,15,0.00
2013-4-9,36.6,29.0,23.9,35.1,27.6,22.2,96,95,93,30.18,29.86,18,1,18,0.73
2013-4-10,31.2,30.1,27.8,30.1,28.9,26.3,98,95,93,30.14,29.86,0,0,0,0.01
2013-4-11,34.2,31.7,29.1,32.6,30.7,28.4,98,96,93,29.86,29.66,9,1,9,0.16
2013-4-12,32.1,30.2,25.7,30.4,27.5,23.4,96,90,81,29.98,29.74,13,3,13,0.06
2013-4-13,39.2,31.0,23.5,32.7,28.0,21.8,98,89,76,29.99,29.75,12,2,12,0.12
2013-4-14,41.9,36.6,33.7,41.5,34.3,28.0,99,92,77,29.75,29.33,17,4,17,0.01
2013-4-15,38.2,33.5,29.2,31.2,28.2,24.3,88,81,73,30.10,29.56,20,4,20,0.00
2013-4-16,42.2,34.6,28.6,31.6,28.3,25.9,90,78,60,30.30,30.08,9,2,10,0.00
2013-4-17,37.1,33.8,31.9,35.1,31.1,28.6,96,90,82,30.30,29.95,14,2,14,0.01
2013-4-18,33.0,31.0,27.7,30.9,29.3,24.1,96,93,86,29.96,29.79,19,6,19,0.02
2013-4-19,37.6,29.9,23.2,27.9,22.9,18.8,86,75,55,30.13,29.82,19,5,19,0.00
2013-4-20,40.4,30.6,18.1,32.9,24.0,15.5,95,78,53,30.26,30.13,12,2,12,0.00
2013-4-21,53.3,42.1,35.0,46.6,36.8,29.9,92,82,66,30.17,30.00,17,3,17,0.00
2013-4-22,36.4,31.5,27.2,33.4,29.3,24.4,97,92,86,30.33,30.12,15,3,15,0.00
2013-4-23,35.1,29.0,23.8,25.6,22.7,19.6,91,78,62,30.34,30.16,13,3,13,0.00
2013-4-24,48.0,34.8,25.9,38.1,28.9,21.7,92,79,63,30.16,29.98,21,2,21,0.01
2013-4-25,66.5,45.8,23.5,42.8,33.0,21.3,95,64,37,30.22,29.88,21,3,21,0.01
2013-4-26,72.2,58.7,44.9,41.7,36.9,31.7,71,47,24,30.11,29.90,13,2,15,0.00
2013-4-27,77.3,58.4,34.8,46.8,37.3,31.7,92,53,20,30.11,29.82,14,1,14,0.00
2013-4-28,86.5,65.4,52.4,52.1,47.1,41.0,81,56,21,29.82,29.57,18,4,18,0.00
2013-4-29,78.7,63.2,45.3,48.2,41.0,27.5,69,45,31,29.80,29.35,14,2,14,0.00
2013-4-30,68.1,59.9,51.5,52.3,38.9,25.4,78,49,24,29.99,29.29,16,4,16,0.00
2013-5-1,51.5,40.0,32.8,40.9,32.3,26.9,96,75,54,30.52,29.99,14,3,14,0.75
2013-5-2,52.1,41.2,33.2,29.8,25.6,18.5,74,56,28,30.65,30.45,21,4,21,0.00
2013-5-3,53.1,39.7,25.2,28.3,25.0,21.6,86,59,33,30.45,30.13,15,2,15,0.00
2013-5-4,41.6,38.9,36.3,38.1,34.2,26.1,95,84,54,30.20,30.10,13,2,13,0.05
2013-5-5,49.6,43.9,38.6,45.3,41.5,37.6,97,91,84,30.21,30.12,7,1,7,0.06
2013-5-6,64.1,51.4,44.6,50.6,45.6,42.7,93,82,57,30.15,30.01,5,0,5,0.00
2013-5-7,74.8,57.9,38.1,55.1,46.8,37.1,99,71,33,30.04,29.89,16,2,16,0.00
2013-5-8,65.8,58.5,54.7,59.8,55.7,50.9,99,91,75,29.92,29.85,13,1,13,0.76
2013-5-9,65.7,57.5,53.1,55.5,53.7,49.3,97,88,67,30.05,29.89,14,2,14,0.03
2013-5-10,69.0,56.0,40.8,49.1,42.1,35.7,92,62,37,30.10,29.93,15,1,15,0.00
2013-5-11,56.7,48.1,37.9,43.1,27.4,15.9,68,47,24,30.26,30.02,21,4,21,0.00
2013-5-12,64.2,48.4,27.9,30.4,25.3,20.3,89,46,20,30.26,30.06,8,0,8,0.00
2013-5-13,89.5,67.2,48.9,54.7,42.8,26.2,62,42,26,30.07,29.67,19,3,19,0.00
2013-5-14,94.7,76.1,54.9,54.6,46.8,32.9,79,41,16,29.73,29.50,17,3,17,0.00
2013-5-15,81.5,69.2,54.9,51.7,47.2,44.3,70,47,32,29.88,29.72,10,1,10,0.00
2013-5-16,83.2,64.9,49.9,59.6,51.0,42.4,96,66,26,29.83,29.70,16,1,16,0.45
2013-5-17,86.7,72.4,60.0,67.3,62.3,59.0,98,74,43,29.77,29.67,14,2,15,0.06
2013-5-18,84.0,74.5,65.4,67.3,62.5,60.3,84,68,48,29.80,29.57,16,2,18,0.00
2013-5-19,74.3,66.2,62.1,64.2,62.0,60.1,97,87,68,29.64,29.41,23,1,23,0.47
2013-5-20,67.7,61.3,56.2,62.4,55.8,53.2,96,83,61,29.46,29.37,16,2,16,0.01
2013-5-21,61.8,55.3,51.1,55.8,52.2,49.7,96,89,76,29.66,29.44,10,1,10,0.06
2013-5-22,53.0,50.9,47.7,50.8,48.4,46.1,97,91,81,30.00,29.65,15,2,15,0.14
2013-5-23,69.0,57.6,44.8,50.6,43.2,32.0,92,62,29,30.23,30.00,13,1,13,0.00
2013-5-24,67.8,59.6,47.4,53.0,45.2,37.6,72,59,47,30.24,30.00,18,3,18,0.01
2013-5-25,76.5,63.6,51.7,61.1,54.0,48.9,97,72,57,30.04,29.92,19,3,19,2.92
2013-5-26,57.9,54.4,51.1,57.1,53.4,50.4,99,97,90,30.04,29.84,19,2,19,2.43
2013-5-27,68.6,59.7,53.3,62.3,57.0,52.7,100,91,77,29.91,29.64,10,2,12,1.22
2013-5-28,76.1,62.7,56.2,62.6,58.4,55.4,99,87,60,29.71,29.59,8,0,8,0.07
2013-5-29,81.0,68.3,58.7,69.6,64.1,57.5,99,88,59,29.67,29.40,17,2,17,0.15
2013-5-30,77.8,67.3,60.9,65.7,61.1,52.3,96,81,54,29.42,29.34,18,3,18,0.02
2013-5-31,70.8,62.6,56.3,54.9,51.6,48.4,86,68,51,29.51,29.38,16,3,18,0.00
2013-6-1,59.1,55.2,51.4,58.3,51.9,44.5,98,89,76,30.02,29.48,18,4,18,0.05
2013-6-2,69.8,58.1,49.5,46.5,44.1,39.5,85,62,34,30.10,29.95,11,1,11,0.00
2013-6-3,75.3,61.7,44.5,53.5,47.5,43.2,96,63,36,29.97,29.73,24,3,24,0.00
2013-6-4,70.9,62.1,56.4,62.2,57.7,51.1,99,86,64,29.97,29.75,15,1,15,0.52
2013-6-5,63.9,57.8,51.3,55.5,51.2,47.4,89,79,67,29.98,29.92,12,1,12,0.00
2013-6-6,66.3,58.6,50.7,55.4,52.2,48.2,96,80,61,30.00,29.93,8,1,9,0.00
2013-6-7,72.3,59.7,43.8,54.4,49.7,43.0,99,72,47,30.01,29.81,9,0,9,0.00
2013-6-8,60.2,57.4,53.4,59.2,54.6,49.6,99,91,72,29.81,29.61,15,2,15,2.01
2013-6-9,64.8,60.3,55.7,59.6,58.3,54.7,99,93,82,29.81,29.53,17,2,17,0.13
2013-6-10,77.4,64.0,47.7,65.6,58.0,47.2,100,83,59,29.85,29.72,10,1,10,0.01
2013-6-11,90.0,76.2,61.9,69.0,64.5,60.4,97,70,40,29.80,29.61,16,2,16,0.00
2013-6-12,73.0,67.3,59.8,65.7,60.2,52.7,89,78,68,30.00,29.50,18,2,18,0.00
2013-6-13,80.3,68.6,53.2,57.0,54.3,50.7,94,63,39,30.08,29.91,10,1,10,0.00
2013-6-14,83.3,74.0,64.5,71.3,63.2,55.9,83,69,58,29.96,29.66,22,3,22,0.00
2013-6-15,81.4,70.9,63.1,67.0,63.1,56.6,96,78,50,29.92,29.72,13,1,13,0.29
2013-6-16,84.8,70.5,52.4,60.2,55.0,47.4,94,62,32,29.93,29.83,8,0,8,0.00
2013-6-17,80.5,71.7,61.6,60.2,56.1,51.6,85,60,39,29.95,29.87,14,1,14,0.00
2013-6-18,84.2,71.3,56.1,61.1,55.9,52.9,91,62,35,29.99,29.87,13,0,13,0.00
2013-6-19,86.7,76.4,63.5,67.1,61.7,55.4,76,61,45,29.92,29.75,17,2,17,0.00
2013-6-20,88.8,79.6,69.7,73.3,68.6,63.5,83,70,57,29.81,29.67,17,3,17,0.00
2013-6-21,88.8,78.8,67.1,74.8,69.9,58.7,95,75,56,29.82,29.62,15,2,19,0.23
2013-6-22,77.8,71.6,65.3,68.6,66.1,63.4,98,83,68,29.86,29.63,14,1,14,0.60
2013-6-23,81.5,71.8,62.7,69.3,63.7,60.6,97,77,52,29.82,29.55,17,1,17,0.16
2013-6-24,82.2,70.9,60.8,71.5,66.1,60.1,99,86,63,29.84,29.65,13,1,15,0.30
2013-6-25,89.3,78.5,68.6,72.4,69.4,65.3,97,76,48,29.68,29.57,11,1,11,0.00
2013-6-26,90.5,79.4,70.3,72.5,65.9,58.8,94,67,36,29.76,29.56,11,1,11,0.00
2013-6-27,86.5,77.7,70.2,69.0,63.4,56.8,83,63,38,29.89,29.76,13,1,13,0.00
2013-6-28,83.5,74.4,62.9,62.1,58.1,52.6,85,59,36,29.90,29.83,21,3,21,0.00
2013-6-29,78.5,70.8,61.9,60.6,57.5,52.9,86,64,43,29.92,29.82,17,2,17,0.00
2013-6-30,80.3,68.2,55.9,58.1,52.9,47.4,92,62,33,30.09,29.92,10,0,10,0.00
2013-7-1,85.4,70.5,54.2,58.0,54.3,51.2,93,61,35,30.16,30.08,7,0,7,0.00
2013-7-2,85.2,71.4,58.6,62.6,56.7,50.9,91,64,33,30.09,29.99,10,0,10,0.00
2013-7-3,85.3,72.4,56.4,64.4,58.6,54.8,97,65,40,30.00,29.84,10,0,10,0.00
2013-7-4,88.3,76.6,62.7,62.8,59.4,55.7,79,57,37,29.85,29.70,18,2,18,0.00
2013-7-5,88.8,79.3,69.8,67.6,62.9,57.5,70,58,46,29.75,29.67,17,2,17,0.00
2013-7-6,89.3,80.8,73.8,71.3,66.5,61.8,71,62,54,29.71,29.64,14,2,14,0.00
2013-7-7,90.4,78.8,69.4,74.5,69.0,64.6,97,73,57,29.85,29.69,13,1,17,0.07
2013-7-8,91.6,79.8,65.1,74.2,69.2,62.3,97,72,49,29.90,29.78,9,1,9,0.00
2013-7-9,85.2,78.4,67.6,73.9,69.2,65.4,96,74,55,29.91,29.73,11,0,11,0.18
2013-7-10,84.0,72.5,62.6,66.2,59.5,52.5,93,67,35,30.04,29.91,7,0,7,0.00
2013-7-11,85.6,75.1,63.8,66.1,61.2,55.6,79,63,49,30.02,29.82,18,3,18,0.00
2013-7-12,91.1,79.9,68.0,74.2,67.9,61.0,79,67,56,29.86,29.71,25,4,25,0.00
2013-7-13,88.1,81.1,74.3,76.3,71.7,66.4,84,74,66,29.85,29.77,14,2,14,0.00
2013-7-14,77.5,72.2,67.5,71.2,66.9,62.0,92,84,74,30.08,29.84,11,1,12,0.03
2013-7-15,86.6,76.6,62.4,69.1,66.0,61.8,99,72,47,30.13,30.02,9,1,13,0.00
2013-7-16,88.8,79.9,69.4,69.0,66.9,63.6,92,67,44,30.12,30.04,15,1,15,0.00
2013-7-17,91.5,81.7,71.2,72.1,68.2,64.9,82,65,48,30.16,30.01,14,1,14,0.00
2013-7-18,92.9,83.5,74.7,72.2,70.1,67.7,80,65,48,30.01,29.72,15,2,18,0.00
2013-7-19,85.6,78.7,66.1,70.4,64.4,57.4,89,63,39,29.86,29.71,10,1,10,0.00
2013-7-20,85.2,71.9,62.0,69.3,64.3,60.5,97,79,49,29.95,29.79,11,0,13,0.20
2013-7-21,86.9,76.8,65.9,69.8,66.3,59.5,95,71,54,29.85,29.66,8,1,8,0.00
2013-7-22,85.8,76.9,66.7,71.7,66.2,60.2,93,71,48,29.82,29.61,12,2,12,0.00
2013-7-23,78.1,68.9,60.7,60.9,58.2,55.7,87,70,52,29.97,29.79,8,1,8,0.00
2013-7-24,83.6,70.2,56.1,63.3,59.4,54.9,97,71,48,30.03,29.92,8,0,8,0.00
2013-7-25,84.6,74.8,66.3,70.7,65.3,60.6,85,73,57,29.94,29.83,8,1,8,0.00
2013-7-26,73.1,64.6,55.7,63.9,53.6,47.7,87,69,46,30.08,29.90,16,2,16,0.00
2013-7-27,70.6,59.3,48.4,50.8,46.8,43.8,90,66,42,30.10,29.98,13,1,13,0.00
2013-7-28,76.6,62.3,45.3,50.6,47.4,43.4,95,62,36,30.03,29.96,7,0,7,0.00
2013-7-29,72.8,63.0,55.2,59.2,54.4,49.7,84,74,56,30.01,29.96,14,1,14,0.00
2013-7-30,80.5,69.9,62.3,67.1,62.6,58.7,95,79,58,30.03,29.98,8,0,8,0.00
2013-7-31,82.3,69.5,58.4,65.2,60.6,57.3,97,76,47,30.08,29.98,5,0,7,0.01
2013-8-1,87.9,72.1,57.7,71.6,63.6,56.6,98,77,48,30.02,29.80,11,0,11,0.03
2013-8-2,72.3,66.1,57.6,63.8,59.8,55.6,95,81,65,30.00,29.80,10,0,10,0.32
2013-8-3,79.5,65.7,52.1,58.6,54.5,51.3,98,71,41,30.16,30.00,9,0,9,0.00
2013-8-4,78.3,67.4,56.2,63.7,57.8,50.5,94,73,53,30.18,29.89,14,1,14,0.00
2013-8-5,84.8,74.1,64.6,71.1,65.5,60.4,98,77,46,29.90,29.76,11,1,11,0.00
2013-8-6,86.5,73.9,62.7,68.6,64.6,60.5,98,75,51,29.80,29.66,11,1,11,0.03
2013-8-7,81.8,70.5,59.6,62.7,60.0,57.7,94,71,49,29.94,29.76,8,0,8,0.00
2013-8-8,80.1,68.6,60.3,68.4,62.4,56.4,94,81,65,29.95,29.87,10,1,10,0.06
2013-8-9,80.2,68.7,55.4,64.1,58.2,53.8,99,73,45,30.09,29.95,5,0,7,0.01
2013-8-10,73.8,66.5,58.3,67.2,60.7,54.3,97,82,67,30.12,29.98,10,0,10,0.35
2013-8-11,79.7,69.8,62.3,68.3,64.8,60.9,99,85,65,30.03,29.93,4,0,8,1.11
2013-8-12,79.5,69.0,58.8,64.4,60.7,57.4,99,77,55,30.05,29.97,7,0,7,0.01
2013-8-13,77.9,65.6,54.2,61.4,55.5,47.4,98,73,44,30.13,30.04,8,0,8,0.00
2013-8-14,70.2,62.8,56.1,62.0,56.5,50.8,92,80,71,30.14,30.04,9,0,9,0.00
2013-8-15,66.8,62.6,56.9,61.0,58.9,55.5,97,88,81,30.09,30.01,9,1,9,0.00
2013-8-16,69.5,63.0,55.0,62.0,59.0,54.2,99,87,75,30.13,30.07,12,1,12,0.01
2013-8-17,78.5,68.8,58.8,66.5,61.1,56.5,93,77,61,30.10,30.00,15,2,15,0.00
2013-8-18,79.8,70.1,60.1,66.1,61.3,56.4,88,74,61,30.03,29.91,17,2,17,0.00
2013-8-19,86.7,75.7,64.5,74.1,68.1,61.3,91,78,65,29.95,29.77,13,1,13,0.00
2013-8-20,90.1,78.8,66.7,77.2,72.2,65.5,98,82,55,29.79,29.73,11,1,11,0.00
2013-8-21,82.5,76.3,73.2,74.7,71.5,69.2,94,85,75,29.91,29.72,10,1,10,0.02
2013-8-22,85.2,75.2,65.8,71.6,67.7,64.9,100,79,57,30.01,29.90,9,1,9,0.01
2013-8-23,87.3,76.7,66.7,75.9,69.4,63.5,94,79,63,30.01,29.85,16,2,16,0.00
2013-8-24,89.5,79.2,71.0,78.1,72.8,67.4,95,81,67,29.90,29.79,22,4,22,0.29
2013-8-25,91.7,82.5,75.0,78.6,74.4,70.9,88,77,63,29.88,29.83,17,2,17,0.00
2013-8-26,92.7,83.3,74.9,78.6,73.9,69.0,83,74,61,29.87,29.73,15,2,15,0.00
2013-8-27,95.1,83.9,73.8,78.8,73.2,67.0,91,71,56,29.79,29.69,10,1,10,0.00
2013-8-28,94.3,83.6,75.2,80.9,76.0,70.8,96,79,58,29.88,29.78,12,1,12,0.00
2013-8-29,92.4,82.1,68.3,77.2,72.9,66.3,94,75,55,29.86,29.75,13,1,13,0.00
2013-8-30,87.5,79.7,71.3,75.8,70.9,66.7,95,76,56,29.84,29.76,9,1,9,0.00
2013-8-31,91.3,77.4,64.4,76.0,70.0,63.5,99,80,56,29.80,29.65,27,0,27,0.35
2013-9-1,77.8,69.2,60.9,67.7,60.9,57.4,96,76,56,29.98,29.75,14,2,14,0.00
2013-9-2,79.1,64.6,50.4,57.4,54.6,49.6,98,74,41,30.06,29.96,7,0,7,0.01
2013-9-3,84.8,70.3,56.3,69.4,61.4,52.4,89,74,57,30.00,29.89,13,1,13,0.00
2013-9-4,90.2,76.1,63.4,69.9,65.5,62.3,98,73,42,30.03,29.93,9,1,9,0.00
2013-9-5,84.1,76.1,71.1,71.0,66.5,63.2,89,73,56,30.05,29.95,14,2,14,0.01
2013-9-6,91.4,78.2,66.7,74.0,68.5,62.1,91,74,50,29.97,29.75,10,1,12,0.00
2013-9-7,91.3,78.3,69.5,74.2,71.0,68.3,97,80,53,29.87,29.73,10,0,10,0.00
2013-9-8,84.5,75.7,69.5,74.3,70.0,66.9,93,83,71,29.89,29.71,12,1,12,0.00
2013-9-9,92.8,78.9,68.8,72.4,68.9,65.3,98,74,47,29.74,29.60,11,1,11,0.11
2013-9-10,78.5,72.4,66.8,68.2,66.1,63.5,97,81,64,29.96,29.73,6,0,6,0.00
2013-9-11,85.9,73.3,61.6,65.5,61.6,54.6,98,70,40,30.06,29.95,8,1,8,0.00
2013-9-12,78.5,68.2,56.6,55.1,50.6,46.9,81,56,35,30.19,30.06,10,1,10,0.00
2013-9-13,76.3,62.2,47.3,53.5,50.6,46.3,98,69,42,30.19,29.99,10,1,10,0.00
2013-9-14,71.2,62.0,54.0,58.2,53.5,49.0,84,74,60,30.00,29.73,14,2,14,0.01
2013-9-15,66.2,60.7,50.9,60.2,55.2,49.4,95,82,70,30.24,29.73,14,1,15,0.00
2013-9-16,70.1,57.7,46.4,54.1,50.5,45.6,99,79,53,30.32,30.12,12,1,12,0.00
2013-9-17,65.5,60.4,55.9,64.8,57.8,50.6,98,91,83,30.13,29.77,14,2,14,0.01
2013-9-18,89.5,76.5,65.5,72.4,69.2,64.6,98,80,55,29.76,29.52,17,2,17,0.00
2013-9-19,75.6,66.8,53.9,69.4,59.7,47.1,94,79,47,29.90,29.49,20,2,20,0.09
2013-9-20,64.1,54.3,43.1,48.4,45.1,40.6,92,73,47,29.99,29.90,16,2,16,0.00
2013-9-21,76.2,57.1,36.8,51.6,44.6,35.8,98,68,35,29.99,29.79,11,1,11,0.00
2013-9-22,84.3,68.7,54.1,56.5,52.8,50.2,89,60,35,29.79,29.63,19,3,19,0.00
2013-9-23,79.4,67.4,56.8,54.6,52.0,48.7,79,60,37,29.75,29.63,14,3,20,0.00
2013-9-24,76.4,63.8,56.3,57.7,54.2,51.4,95,72,48,29.86,29.75,7,0,7,0.00
2013-9-25,78.7,65.3,51.7,59.6,56.1,51.1,99,75,49,29.85,29.65,16,2,16,0.00
2013-9-26,85.8,73.2,62.3,62.1,60.0,58.0,87,66,43,29.69,29.60,21,4,21,0.00
2013-9-27,79.8,70.8,60.0,65.2,61.4,52.9,88,73,57,29.68,29.60,16,2,16,0.16
2013-9-28,64.0,56.1,50.1,55.4,47.2,40.5,97,74,44,29.93,29.57,19,2,19,0.35
2013-9-29,81.3,63.4,47.6,51.5,45.3,41.1,80,55,27,29.93,29.67,14,2,14,0.00
2013-9-30,84.8,69.7,57.1,54.7,49.4,45.1,69,50,28,29.67,29.49,16,2,16,0.00
2013-10-1,76.8,64.0,48.7,54.3,44.3,31.8,81,53,21,29.94,29.52,12,1,12,0.00
2013-10-2,79.7,63.0,44.5,66.9,51.1,35.8,96,68,41,29.95,29.67,14,1,14,0.14
2013-10-3,59.0,56.2,54.1,56.4,54.6,52.4,98,94,90,29.85,29.74,10,1,10,0.14
2013-10-4,62.5,56.9,48.1,61.3,55.2,43.8,98,94,82,29.85,29.60,15,3,15,0.01
2013-10-5,48.0,42.7,37.3,43.9,38.1,33.2,92,84,74,29.77,29.67,14,2,14,0.00
2013-10-6,58.1,47.9,43.0,47.4,41.7,35.9,97,81,45,29.97,29.76,16,3,16,0.01
2013-10-7,75.0,55.5,40.6,50.5,44.2,38.4,93,69,36,29.99,29.85,7,0,7,0.00
2013-10-8,78.1,64.0,51.8,48.6,45.8,42.7,71,54,32,29.85,29.67,23,3,23,0.00
2013-10-9,77.8,64.8,52.4,53.8,50.1,46.6,82,60,41,29.90,29.79,14,2,14,0.00
2013-10-10,79.2,66.9,55.9,57.5,53.5,49.9,84,64,45,29.87,29.63,22,3,22,0.00
2013-10-11,74.5,62.8,48.9,58.2,51.9,41.6,84,69,39,29.73,29.38,31,4,31,0.00
2013-10-12,61.4,50.4,37.3,41.7,35.0,27.8,80,59,29,30.24,29.73,16,2,16,0.00
2013-10-13,66.3,48.6,29.9,37.8,33.6,28.2,97,62,32,30.42,30.24,11,1,11,0.00
2013-10-14,51.3,46.8,44.0,50.2,43.7,35.3,98,90,55,30.28,29.64,22,3,22,2.23
2013-10-15,52.4,46.5,42.7,51.8,44.9,40.0,98,94,87,30.00,29.61,16,3,16,0.06
2013-10-16,54.7,43.1,32.9,41.2,37.0,31.7,98,81,49,30.06,29.91,10,1,10,0.00
2013-10-17,52.9,41.1,32.4,44.5,37.0,31.2,98,86,72,30.03,29.84,13,2,13,0.00
2013-10-18,51.6,40.4,30.6,36.7,32.7,28.3,92,76,44,30.09,29.91,11,1,11,0.00
2013-10-19,52.8,43.1,34.2,41.4,36.4,32.0,94,78,59,29.91,29.76,15,1,15,0.02
2013-10-20,53.7,43.9,37.8,43.5,37.1,32.5,89,77,64,30.00,29.63,17,3,17,0.01
2013-10-21,49.2,40.2,33.6,34.7,31.3,28.4,89,72,48,30.04,29.93,11,1,11,0.00
2013-10-22,40.8,35.7,31.4,33.9,31.8,29.0,96,86,69,30.11,29.91,8,1,8,0.08
2013-10-23,39.9,34.7,27.9,36.1,31.6,26.7,97,88,72,30.22,30.06,9,1,9,0.07
2013-10-24,47.2,36.0,27.3,33.3,28.9,25.2,93,77,49,30.37,30.22,14,1,14,0.00
2013-10-25,62.7,43.6,25.0,43.4,34.9,23.4,95,74,48,30.37,29.93,15,2,15,0.01
2013-10-26,47.4,39.7,28.0,41.0,31.0,25.7,92,72,51,30.22,29.95,14,2,14,0.00
2013-10-27,62.4,44.3,31.4,41.2,32.9,26.9,86,66,43,30.08,29.81,9,1,9,0.00
2013-10-28,43.9,37.7,31.8,33.0,30.0,26.8,87,74,64,30.35,30.08,14,2,14,0.02
2013-10-29,41.9,37.9,34.1,41.4,35.9,29.9,98,92,80,30.30,30.02,14,1,15,0.29
2013-10-30,42.5,40.7,39.2,42.2,40.3,38.1,99,98,96,30.03,29.78,6,0,6,0.02
2013-10-31,46.2,39.8,35.5,40.3,36.8,34.2,97,89,76,29.74,29.47,9,1,10,0.00
2013-11-1,52.6,43.7,39.0,41.9,38.5,35.9,92,82,62,29.98,29.53,16,3,18,0.01
2013-11-2,55.4,41.5,31.5,38.5,33.8,29.2,92,76,44,30.12,29.98,9,1,9,0.00
2013-11-3,56.2,46.9,36.2,38.4,34.7,31.1,82,63,47,30.00,29.64,25,4,25,0.00
2013-11-4,49.8,41.6,29.8,40.3,34.2,26.9,92,76,50,30.15,29.68,14,1,14,0.03
2013-11-5,38.2,32.3,28.4,31.5,29.3,26.1,96,89,67,30.21,30.06,10,0,10,0.00
2013-11-6,33.4,29.0,22.1,30.0,27.1,20.6,96,93,85,30.25,30.13,7,0,7,0.40
2013-11-7,36.6,28.8,19.1,29.9,24.9,17.4,97,86,70,30.42,30.22,9,1,9,0.05
2013-11-8,51.8,41.0,26.2,43.2,34.1,23.4,90,77,68,30.22,29.62,23,3,23,0.01
2013-11-9,48.1,40.2,29.3,36.6,32.5,24.8,88,74,52,30.35,29.80,16,3,16,0.00
2013-11-10,48.7,34.7,20.3,34.7,28.2,18.2,95,78,55,30.39,30.09,12,1,13,0.00
2013-11-11,39.2,20.4,8.9,34.8,14.0,5.3,89,76,65,30.85,30.11,13,3,14,0.00
2013-11-12,33.0,19.6,4.4,16.0,10.4,1.4,92,69,46,30.91,30.48,10,1,10,0.00
2013-11-13,61.3,40.6,25.0,37.3,28.5,15.8,77,63,40,30.48,29.90,14,2,14,0.00
2013-11-14,56.2,40.8,28.9,42.9,34.7,27.4,94,80,55,29.91,29.82,13,1,13,0.00
2013-11-15,56.1,39.8,25.0,43.0,33.5,23.8,98,80,58,29.85,29.51,17,2,17,0.00
2013-11-16,54.6,44.3,37.2,46.9,39.4,33.6,98,83,64,29.51,29.20,11,1,11,0.00
2013-11-17,47.3,40.8,32.9,39.5,36.2,29.3,96,84,72,29.99,29.34,15,2,15,0.00
2013-11-18,46.7,34.3,24.9,32.2,28.0,22.4,92,79,54,30.23,29.99,8,1,8,0.00
2013-11-19,57.4,45.2,32.1,36.6,31.0,26.9,86,60,43,30.14,29.73,22,5,22,0.00
2013-11-20,51.9,44.2,31.2,36.3,32.2,28.1,90,64,45,30.03,29.70,22,3,22,0.00
2013-11-21,31.6,22.6,16.5,28.8,16.9,10.2,90,79,67,30.68,30.03,17,5,17,0.00
2013-11-22,31.8,17.9,4.4,15.8,9.9,0.7,86,72,43,30.76,30.59,13,2,13,0.00
2013-11-23,18.5,11.1,3.8,8.5,3.0,-0.4,83,70,48,30.96,30.75,9,1,9,0.00
2013-11-24,38.4,24.9,11.5,24.7,15.2,3.1,74,66,54,30.75,30.07,20,5,20,0.00
2013-11-25,40.5,31.6,24.3,29.2,24.8,19.9,87,76,57,30.21,30.01,14,2,14,0.00
2013-11-26,30.4,22.1,10.8,23.6,11.8,5.0,81,65,48,30.47,30.20,17,4,17,0.00
2013-11-27,31.0,19.2,6.1,19.0,10.9,2.8,88,71,52,30.48,30.00,19,2,19,0.00
2013-11-28,28.4,22.5,13.8,19.6,15.9,10.7,88,76,62,30.51,30.11,13,2,13,0.00
2013-11-29,38.8,25.9,15.0,25.1,18.4,9.7,82,74,57,30.51,30.09,19,4,19,0.00
2013-11-30,48.1,32.9,20.6,32.8,25.7,18.4,94,76,51,30.20,30.06,8,1,8,0.00
2013-12-1,36.7,31.7,26.3,26.8,25.4,23.1,88,77,66,30.20,29.83,7,1,7,0.00
2013-12-2,48.7,37.6,31.0,35.1,30.3,25.6,85,75,58,29.84,29.49,8,1,9,0.00
2013-12-3,32.8,30.3,25.5,30.7,28.4,23.7,96,93,83,29.77,29.57,8,1,10,0.00
2013-12-4,25.5,15.8,8.5,23.9,13.2,4.9,94,89,84,30.02,29.67,16,4,19,0.00
2013-12-5,8.7,2.4,-5.1,5.4,-2.6,-10.2,86,79,74,30.53,30.03,15,4,15,0.00
2013-12-6,-1.6,-6.5,-11.4,-7.4,-11.4,-15.8,82,78,74,30.83,30.53,9,2,10,0.00
2013-12-7,2.8,-5.5,-14.3,-0.7,-10.4,-18.5,85,79,69,30.87,30.56,7,0,7,0.00
2013-12-8,13.7,7.8,-0.3,9.1,4.3,-3.9,89,85,80,30.56,30.14,7,1,9,0.00
2013-12-9,22.0,1.7,-7.5,15.7,-3.7,-12.2,85,78,71,30.34,29.95,13,3,13,0.00
2013-12-10,23.3,12.8,3.2,18.5,7.4,-1.5,90,79,69,30.24,29.95,21,2,21,0.00
2013-12-11,11.3,0.2,-9.8,7.0,-5.5,-14.0,83,76,69,30.71,30.40,13,2,13,0.00
2013-12-12,31.7,18.9,9.5,19.4,13.4,6.9,90,79,60,30.40,30.09,9,0,9,0.00
2013-12-13,21.1,14.4,8.2,15.2,10.8,5.4,92,85,77,30.30,30.06,13,1,13,0.00
2013-12-14,13.1,9.8,5.7,8.3,5.9,2.6,89,84,78,30.31,30.19,10,1,10,0.00
2013-12-15,12.1,10.2,7.6,8.6,6.0,4.1,88,83,77,30.22,30.08,8,1,8,0.00
2013-12-16,32.2,15.5,5.5,27.1,11.8,2.4,89,85,80,30.14,30.01,12,1,12,0.00
2013-12-17,33.6,27.4,1.3,28.5,21.5,-6.5,91,79,65,30.63,30.02,7,3,15,0.00
2013-12-18,42.2,30.8,21.7,30.9,24.2,16.2,92,77,63,30.02,29.72,11,1,13,0.00
2013-12-19,27.8,12.7,7.7,25.2,8.7,3.1,93,83,81,30.11,29.84,10,2,13,0.00
2013-12-20,13.2,10.2,8.0,9.3,6.4,3.8,89,84,81,30.12,29.93,10,1,10,0.00
2013-12-21,21.1,12.6,5.0,14.4,8.8,2.0,92,85,75,30.06,29.88,8,1,9,0.00
2013-12-22,10.7,4.2,-5.7,6.8,-0.4,-10.0,86,81,75,30.50,30.06,12,3,12,0.00
2013-12-23,-2.6,-9.1,-14.4,-10.0,-15.7,-20.6,81,72,61,30.72,30.50,10,2,10,0.00
2013-12-24,21.4,9.0,-13.0,19.2,4.5,-17.2,92,81,69,30.62,30.15,21,3,21,0.00
2013-12-25,32.9,24.3,13.4,28.8,20.5,10.7,94,86,70,30.28,30.14,17,2,17,0.00
2013-12-26,35.2,27.5,17.7,27.3,22.7,14.6,92,82,71,30.24,30.07,10,1,10,0.00
2013-12-27,42.6,29.7,12.6,33.9,25.3,10.2,97,84,68,30.22,30.01,8,1,10,0.00
2013-12-28,45.9,30.3,4.4,34.0,23.5,-1.5,98,76,59,30.25,29.69,26,4,26,0.00
2013-12-29,4.6,-2.0,-7.2,-1.0,-11.1,-16.7,77,64,56,30.52,30.25,21,4,21,0.00
2013-12-30,18.0,8.3,0.2,13.4,3.1,-8.1,86,79,65,30.36,30.11,14,2,14,0.00
2013-12-31,8.0,4.1,-2.7,3.5,-0.3,-7.1,85,81,78,30.39,30.25,12,2,12,0.00
2014-1-1,4.5,-0.4,-5.9,-2.5,-5.9,-9.8,84,77,68,30.53,30.36,9,1,10,0.00
2014-1-2,3.5,-4.0,-10.7,-3.5,-9.1,-14.9,84,78,69,30.62,30.40,11,1,11,0.00